Flag for Germany Weather past 2 weeks in Detmold, North Rhine-Westphalia, Germany

Now
52 °F

Light rain. Overcast.


Feels Like: 52 °F
Forecast: 42 / 48 °F
Wind: 1 mph from Southwest

Location: Bad Lippspringe

Current Time: Apr 26, 2015 at 7:44:41 AM

Latest Report: Apr 26, 2015 at 7:00 AM


Visibility: 2 mi

Pressure: 29.75 "Hg

Humidity: 93%

Dew point: 50 °F

Location of DetmoldLocation

Historic Weather in Detmold — Graph

°F

Detmold temperature yesterday

Maximum temperature yesterday: 59 °F (at 12:00 PM)
Minimum temperature yesterday: 50 °F (at 12:00 AM)
Average temperature yesterday: 55 °F

Past Weeks' High & Low Weather Summary

 TemperatureHumidityPressure
High72 °F (Apr 15, 5:00 PM)98% (Apr 23, 6:00 AM)30.46 "Hg (Apr 23, 6:00 AM)
Low31 °F (Apr 18, 6:00 AM)24% (Apr 21, 5:00 PM)29.75 "Hg (Apr 26, 6:00 AM)
Average50 °F68%30.17 "Hg
* Reported Apr 11 6:00 AM — Apr 26 6:00 AM, Detmold, Weather by CustomWeather, © 2015

Note: Actual official high and low records may vary slightly from our data, if they occured in-between our weather recording intervals... More about our weather records

Advertising

Detmold weather history for previous 24 hours

 ConditionsComfort  
Time TempWeatherWind HumidityBarometerVisibility
6:00 AM
Sun, Apr 26
52 °FLight rain. Overcast.2 mph90%29.75 "Hg6 mi
5:00 AM52 °FOvercast.1 mph88%29.75 "Hg7 mi
4:00 AM50 °FPassing clouds.1 mph91%29.77 "Hg6 mi
3:00 AM51 °FPassing clouds.2 mph90%29.78 "Hg6 mi
2:00 AM49 °FFog.1 mph92%29.78 "Hg4 mi
1:00 AM50 °FPassing clouds.2 mph92%29.78 "Hg5 mi
12:00 AM50 °FFog.2 mph93%29.79 "Hg4 mi
11:00 PM
Sat, Apr 25
51 °FFog.2 mph93%29.78 "Hg4 mi
10:00 PM53 °FOvercast.2 mph91%29.78 "Hg7 mi
9:00 PM54 °FOvercast.2 mph90%29.76 "Hg9 mi
8:00 PM55 °FOvercast.3 mph87%29.75 "Hg8 mi
7:00 PM56 °FOvercast.2 mph88%29.75 "Hg6 mi
6:00 PM55 °FLight freezing rain. Overcast.2 mph89%29.76 "Hg4 mi
5:00 PM56 °FDrizzle. Overcast.2 mph81%29.75 "Hg5 mi
4:00 PM57 °FLight rain. Overcast.3 mph80%29.76 "Hg5 mi
3:00 PM55 °FLow clouds.2 mph89%29.78 "Hg4 mi
2:00 PM53 °FLight rain. Overcast.6 mph92%29.78 "Hg3 mi
1:00 PM59 °FDrizzle. Overcast.3 mph76%29.77 "Hg6 mi
12:00 PM59 °FDrizzle. Overcast.2 mph69%29.77 "Hg4 mi
11:00 AM57 °FOvercast.2 mph77%29.78 "Hg3 mi
10:00 AM56 °FOvercast.1 mph80%29.79 "Hg4 mi
9:00 AM56 °FLight rain. Overcast.3 mph67%29.78 "Hg6 mi
8:00 AM53 °FOvercast.1 mph78%29.77 "Hg7 mi
7:00 AM52 °FPartly sunny.1 mph79%29.78 "Hg9 mi
Weather by CustomWeather, © 2015

See weather overviewHow to use our weather pages